TimeCDT,TemperatureF,Dew PointF,Humidity,Sea Level PressureIn,VisibilityMPH,Wind Direction,Wind SpeedMPH,Gust SpeedMPH,PrecipitationIn,Events,Conditions,WindDirDegrees,DateUTC
12:53 AM,66.0,54.0,65,30.08,10.0,Calm,Calm,-,N/A,,Clear,0,2012-09-10 05:53:00
1:53 AM,66.0,54.0,65,30.08,10.0,ENE,3.5,-,N/A,,Clear,60,2012-09-10 06:53:00
2:53 AM,64.0,54.0,70,30.08,10.0,ENE,4.6,-,N/A,,Clear,70,2012-09-10 07:53:00
3:53 AM,62.1,55.9,80,30.08,10.0,East,3.5,-,N/A,,Clear,80,2012-09-10 08:53:00
4:53 AM,60.1,55.0,83,30.10,10.0,NE,4.6,-,N/A,,Clear,50,2012-09-10 09:53:00
5:53 AM,61.0,55.0,81,30.11,10.0,ENE,5.8,-,N/A,,Clear,60,2012-09-10 10:53:00
6:53 AM,61.0,55.0,81,30.12,10.0,NE,6.9,-,N/A,,Clear,50,2012-09-10 11:53:00
7:53 AM,63.0,55.9,78,30.14,10.0,ENE,8.1,-,N/A,,Clear,60,2012-09-10 12:53:00
8:53 AM,66.9,55.0,66,30.15,10.0,ENE,11.5,-,N/A,,Clear,70,2012-09-10 13:53:00
9:53 AM,72.0,55.0,55,30.15,10.0,East,11.5,-,N/A,,Clear,80,2012-09-10 14:53:00
10:53 AM,75.0,55.0,50,30.15,10.0,East,10.4,-,N/A,,Clear,90,2012-09-10 15:53:00
11:53 AM,79.0,57.0,47,30.13,10.0,ENE,10.4,-,N/A,,Clear,70,2012-09-10 16:53:00
12:53 PM,82.0,57.0,42,30.11,10.0,NE,9.2,-,N/A,,Clear,40,2012-09-10 17:53:00
1:53 PM,84.0,55.9,38,30.08,10.0,NNE,8.1,-,N/A,,Clear,30,2012-09-10 18:53:00
2:53 PM,86.0,55.0,35,30.06,10.0,NNE,3.5,-,N/A,,Clear,20,2012-09-10 19:53:00
3:53 PM,86.0,52.0,31,30.04,10.0,Calm,Calm,-,N/A,,Clear,0,2012-09-10 20:53:00
4:53 PM,88.0,51.1,28,30.03,10.0,Variable,3.5,-,N/A,,Clear,0,2012-09-10 21:53:00
5:53 PM,87.1,50.0,28,30.02,10.0,NE,5.8,-,N/A,,Clear,40,2012-09-10 22:53:00
6:53 PM,82.0,54.0,38,30.01,10.0,ENE,6.9,-,N/A,,Clear,70,2012-09-10 23:53:00
7:09 PM,80.6,53.6,39,30.02,1.2,ENE,5.8,-,N/A,,Haze,70,2012-09-11 00:09:00
7:17 PM,80.6,53.6,39,30.02,10.0,East,4.6,-,N/A,,Clear,80,2012-09-11 00:17:00
7:53 PM,75.0,54.0,48,30.02,10.0,ENE,8.1,-,N/A,,Clear,60,2012-09-11 00:53:00
8:53 PM,72.0,55.9,57,30.04,10.0,East,5.8,-,N/A,,Clear,80,2012-09-11 01:53:00
9:53 PM,73.9,55.0,52,30.05,10.0,East,5.8,-,N/A,,Clear,100,2012-09-11 02:53:00
10:53 PM,70.0,55.9,61,30.06,10.0,ENE,6.9,-,N/A,,Clear,70,2012-09-11 03:53:00
11:53 PM,69.1,55.0,61,30.06,10.0,ENE,4.6,-,N/A,,Clear,60,2012-09-11 04:53:00